Vorticity
4 4 4 5 6 6 7 5 5 4 5 2 4 8 9 8 7 5 5 5 5 5 4 4 4 6 5 6 9 18 12 6 4 5 4 5 5 6 5 5 5 5 5
7 5 5 4 5 5 2 5 5 5 6 5 4 6 8 7 6 5 5 5 4 5 5 5 4 4 2 3 1 10 16 6 11 6 6 5 6 5 4 4 4 4 6
8 7 6 4 4 4 4 4 2 4 5 6 3 4 6 6 5 5 5 5 5 5 4 5 5 4 5 -4 4 6 6 4 5 6 5 6 5 4 3 4 5 4 4
6 8 6 6 4 4 4 5 6 4 3 5 6 1 4 5 4 6 4 5 8 7 7 6 5 4 5 5 5 4 4 8 5 4 4 5 5 5 3 3 4 5 4
6 7 8 7 5 4 4 6 8 6 4 5 5 7 4 4 5 3 4 2 5 6 7 7 7 6 5 5 6 23 7 8 7 11 6 4 5 5 5 4 3 4 3
7 7 8 8 8 4 4 8 11 8 4 4 4 7 8 5 5 3 4 4 4 5 6 7 6 7 6 4 3 10 4 1 3 9 5 5 5 6 4 5 4 4 4
8 7 8 8 10 7 5 7 8 9 7 3 4 6 7 8 5 6 6 6 7 6 5 6 6 6 8 6 5 6 5 5 9 10 6 6 5 4 5 6 4 4 4
8 7 7 9 9 9 5 4 4 2 6 6 6 5 7 5 6 8 6 6 6 3 3 5 7 6 4 5 5 4 6 6 7 17 3 6 6 5 5 5 5 6 4
10 7 6 8 10 8 6 4 5 6 -0 7 10 5 6 7 6 2 6 10 6 3 15 8 7 5 6 5 2 4 6 8 7 14 7 2 8 0 9 4 6 5 4
6 7 6 6 8 8 7 5 5 6 4 9 15 6 6 4 4 6 7 20 5 4 5 3 1 1 3 5 7 5 4 3 13 8 16 8 4 5 6 7 4 5 4
6 8 7 5 7 8 8 6 5 2 6 14 19 8 4 3 4 5 5 6 2 3 3 3 5 12 5 8 7 6 8 5 6 5 12 10 13 8 6 19 3 4 5
7 6 7 6 7 9 10 7 7 6 6 4 20 4 6 -1 2 5 5 4 4 4 5 5 5 9 8 -0 7 9 6 23 -23 -19 -39 8 9 13 25 22 10 8 6
6 7 6 7 5 8 10 9 7 1 5 10 13 7 9 13 2 3 3 5 5 5 9 7 4 6 11 3 10 10 5 10 32 -18 -13 6 14 12 5 32 9 13 9
7 7 6 5 7 4 8 9 10 5 4 6 8 7 6 12 5 4 3 1 7 6 6 6 6 9 4 7 2 11 9 4 8 7 9 5 10 10 12 20 6 16 8
11 10 7 6 7 6 7 8 8 10 8 4 6 4 9 6 8 6 13 5 8 6 8 15 4 6 8 27 5 6 1 7 2 7 1 7 7 8 8 6 15 1 18
12 11 11 8 8 5 4 6 5 7 9 8 6 5 5 2 5 5 9 3 3 6 11 12 11 8 8 7 12 21 20 13 24 12 14 2 8 9 11 9 9 20 13
9 2 12 9 9 11 6 6 10 7 6 6 7 8 7 5 5 5 6 4 3 -2 8 6 7 1 8 5 20 -16 18 -7 12 31 -8 7 6 8 11 10 10 12 10
1 11 14 9 7 15 10 11 6 6 6 10 5 7 6 6 6 5 3 4 5 5 15 5 2 3 3 0 9 3 12 4 10 8 13 8 3 -0 14 11 14 14 12
18 33 29 13 6 7 8 8 8 8 9 8 13 0 13 9 3 4 3 5 3 9 8 15 -2 3 5 2 6 -0 3 8 6 12 5 6 5 14 10 11 11 11 13
16 34 30 11 11 7 7 7 7 7 12 8 6 16 12 10 5 10 6 4 5 7 6 7 7 -8 5 6 3 13 27 3 10 14 14 5 13 13 8 9 9 10 8
9 16 9 10 14 15 11 9 8 8 8 8 6 7 21 8 11 15 13 14 7 9 5 -6 6 10 5 7 -1 3 5 5 -3 12 15 8 11 4 8 9 8 8 7
8 7 15 7 10 -8 5 5 9 8 9 8 6 3 10 21 10 7 8 4 12 6 6 8 7 1 9 3 20 5 25 3 8 13 8 8 10 6 7 7 6 6 6
8 7 7 8 13 12 8 6 7 9 4 8 6 6 8 -5 5 11 9 22 4 11 -1 3 5 -7 7 9 15 0 2 7 -0 7 12 7 10 9 9 6 8 8 7
11 11 12 11 17 12 15 8 5 4 6 10 9 6 6 9 12 12 6 25 23 5 9 10 5 3 3 2 10 10 22 5 7 10 13 6 6 8 14 5 6 8 7
9 8 7 8 7 26 15 13 9 8 6 11 8 7 -8 9 6 3 4 22 16 6 20 10 6 4 6 11 1 11 12 5 6 11 18 12 9 6 11 9 5 6 7
5 8 9 9 8 8 26 18 13 9 9 12 11 11 5 12 6 18 19 -3 20 8 -0 -5 9 2 5 3 9 14 8 8 1 6 13 0 11 6 8 13 11 6 6
Height
5893 5893 5894 5894 5894 5894 5894 5894 5894 5895 5894 5893 5893 5892 5891 5892 5892 5892 5892 5893 5893 5893 5893 5894 5895 5897 5899 5901 5901 5901 5902 5903 5905 5908 5909 5910 5911 5911 5912 5913 5914 5915 5916
5896 5895 5895 5895 5896 5896 5896 5896 5896 5896 5895 5895 5895 5894 5894 5894 5894 5894 5894 5894 5895 5895 5895 5896 5898 5900 5901 5902 5903 5904 5904 5905 5907 5909 5911 5912 5913 5914 5914 5915 5916 5917 5919
5897 5897 5897 5896 5896 5897 5897 5897 5898 5898 5897 5898 5898 5897 5897 5896 5896 5895 5896 5897 5897 5897 5898 5898 5901 5902 5903 5904 5906 5907 5906 5906 5909 5910 5910 5913 5915 5916 5916 5916 5918 5919 5920
5899 5898 5898 5898 5897 5898 5898 5898 5898 5899 5899 5899 5900 5900 5900 5899 5899 5899 5899 5900 5900 5900 5900 5901 5902 5904 5905 5906 5908 5907 5908 5910 5909 5908 5913 5914 5916 5918 5919 5919 5920 5921 5922
5899 5900 5899 5899 5899 5898 5899 5899 5899 5900 5900 5900 5901 5901 5902 5901 5901 5902 5902 5902 5902 5903 5902 5902 5903 5905 5906 5907 5908 5906 5910 5912 5907 5910 5913 5915 5917 5919 5920 5921 5922 5922 5923
5901 5900 5900 5900 5900 5900 5900 5901 5900 5901 5901 5901 5902 5902 5903 5904 5904 5904 5905 5904 5904 5904 5904 5904 5905 5905 5907 5907 5909 5908 5911 5914 5910 5915 5914 5918 5919 5921 5922 5923 5924 5924 5925
5903 5902 5902 5901 5901 5902 5902 5902 5903 5903 5903 5903 5902 5903 5904 5905 5906 5906 5906 5907 5906 5906 5906 5907 5907 5907 5908 5909 5910 5910 5909 5913 5917 5918 5919 5919 5921 5923 5924 5924 5925 5926 5926
5903 5903 5903 5903 5903 5903 5903 5904 5904 5904 5904 5905 5905 5905 5905 5906 5907 5908 5908 5908 5909 5909 5908 5908 5909 5909 5910 5910 5910 5910 5911 5910 5911 5913 5915 5920 5923 5923 5924 5925 5926 5927 5928
5903 5903 5903 5904 5904 5904 5904 5905 5906 5906 5906 5907 5906 5907 5907 5908 5908 5910 5910 5909 5910 5910 5910 5909 5911 5911 5911 5910 5910 5913 5913 5914 5916 5916 5917 5920 5923 5925 5925 5926 5927 5927 5928
5901 5902 5903 5904 5904 5905 5905 5905 5906 5906 5907 5907 5907 5908 5909 5909 5910 5911 5911 5911 5912 5912 5912 5912 5912 5913 5912 5910 5915 5914 5914 5915 5916 5915 5919 5918 5920 5923 5925 5925 5927 5929 5929
5902 5902 5904 5904 5904 5905 5905 5906 5906 5907 5907 5906 5906 5908 5910 5911 5912 5912 5913 5914 5914 5914 5914 5914 5914 5914 5913 5913 5916 5916 5915 5915 5917 5916 5916 5918 5919 5920 5922 5924 5926 5928 5928
5903 5903 5903 5904 5905 5905 5906 5906 5907 5908 5908 5907 5907 5909 5911 5912 5913 5913 5914 5914 5915 5915 5915 5915 5915 5915 5913 5914 5916 5916 5912 5905 5909 5913 5913 5918 5919 5919 5920 5923 5924 5925 5926
5902 5903 5903 5904 5905 5906 5906 5906 5906 5908 5909 5909 5909 5910 5911 5913 5913 5914 5915 5915 5915 5915 5916 5916 5916 5915 5914 5913 5915 5916 5911 5911 5903 5912 5915 5919 5919 5919 5918 5919 5921 5923 5923
5903 5903 5903 5904 5905 5906 5907 5907 5907 5908 5910 5911 5911 5912 5914 5914 5915 5915 5915 5916 5915 5915 5915 5915 5916 5915 5912 5912 5913 5915 5913 5913 5913 5915 5916 5918 5920 5918 5917 5917 5920 5921 5922
5902 5903 5903 5903 5904 5905 5906 5908 5908 5908 5909 5911 5912 5913 5914 5915 5916 5915 5916 5916 5916 5916 5915 5915 5916 5915 5912 5912 5913 5916 5916 5916 5916 5917 5918 5918 5917 5916 5916 5917 5916 5918 5919
5902 5902 5903 5903 5903 5904 5905 5907 5908 5908 5910 5910 5913 5914 5914 5916 5915 5915 5915 5916 5916 5916 5915 5915 5915 5915 5915 5914 5915 5916 5916 5918 5917 5918 5918 5918 5916 5915 5915 5915 5914 5914 5915
5898 5899 5900 5901 5902 5904 5904 5905 5907 5908 5908 5910 5910 5912 5913 5914 5915 5915 5916 5915 5915 5915 5915 5915 5915 5914 5914 5912 5914 5915 5915 5915 5915 5915 5916 5915 5915 5914 5914 5913 5913 5913 5914
5897 5895 5896 5897 5900 5902 5903 5903 5905 5906 5907 5909 5910 5910 5910 5911 5912 5914 5914 5914 5915 5914 5914 5914 5914 5914 5914 5914 5914 5914 5914 5914 5913 5913 5914 5915 5914 5914 5913 5913 5913 5912 5914
5894 5890 5889 5893 5897 5899 5902 5903 5903 5905 5906 5906 5908 5909 5908 5909 5909 5910 5911 5912 5912 5912 5913 5913 5913 5912 5910 5911 5912 5912 5914 5913 5913 5913 5913 5914 5913 5914 5913 5914 5915 5913 5913
5893 5889 5889 5893 5895 5898 5900 5902 5903 5904 5904 5905 5906 5906 5905 5907 5908 5908 5908 5907 5909 5910 5910 5910 5911 5912 5911 5907 5909 5910 5912 5912 5912 5912 5912 5913 5914 5914 5914 5914 5915 5916 5915
5894 5893 5893 5894 5895 5897 5899 5900 5902 5902 5902 5903 5903 5904 5904 5904 5906 5906 5906 5905 5904 5907 5908 5909 5909 5909 5909 5908 5910 5911 5911 5911 5912 5912 5912 5913 5913 5914 5915 5915 5916 5916 5917
5894 5893 5894 5894 5895 5896 5897 5898 5899 5900 5900 5901 5901 5902 5903 5903 5903 5904 5904 5903 5904 5905 5907 5908 5908 5907 5907 5907 5907 5909 5908 5910 5911 5912 5912 5913 5913 5913 5916 5917 5917 5917 5919
5895 5894 5895 5895 5895 5895 5895 5895 5895 5896 5898 5898 5899 5899 5900 5901 5901 5901 5902 5902 5903 5903 5905 5906 5907 5905 5905 5906 5906 5908 5907 5908 5910 5910 5912 5912 5912 5913 5915 5917 5918 5919 5921
5894 5894 5893 5893 5893 5892 5892 5892 5893 5894 5895 5895 5897 5897 5897 5898 5898 5897 5898 5899 5901 5901 5902 5903 5904 5904 5904 5904 5904 5906 5905 5906 5907 5908 5910 5911 5912 5913 5914 5917 5918 5920 5921
5895 5894 5893 5892 5890 5889 5889 5889 5890 5892 5893 5893 5893 5893 5894 5895 5895 5895 5895 5895 5896 5898 5899 5898 5900 5901 5901 5902 5901 5903 5903 5904 5905 5907 5908 5909 5910 5911 5912 5915 5917 5920 5922
5893 5892 5892 5891 5889 5887 5886 5886 5887 5888 5889 5889 5888 5890 5890 5892 5891 5891 5891 5891 5893 5894 5895 5895 5895 5896 5898 5898 5899 5899 5900 5902 5903 5903 5905 5907 5910 5911 5912 5912 5914 5917 5920